This is the latest recevied weather packets stored in our database for station/object 9M2MIN-1. If no packets are shown the sender has not sent any weather packets the latest 10 day(s).
| Time | Temp. | Humidity | Pressure | Rain* | Wind** | Luminosity | Snow |
|---|---|---|---|---|---|---|---|
| 1777691791 | 31.67° C | 83% | 1010 hPa | - | - | - | - |
| 1777690959 | 31.67° C | 83% | 1010 hPa | - | - | - | - |
| 1777690891 | 31.67° C | 83% | 1010 hPa | - | - | - | - |
| 1777689991 | 31.67° C | 85% | 1010.1 hPa | - | - | - | - |
| 1777689175 | 31.67° C | 86% | 1010 hPa | - | - | - | - |
| 1777689091 | 31.67° C | 86% | 1010 hPa | - | - | - | - |
| 1777688292 | 31.67° C | 87% | 1009.8 hPa | - | - | - | - |
| 1777688191 | 31.67° C | 87% | 1009.8 hPa | - | - | - | - |
| 1777687291 | 31.11° C | 88% | 1009.8 hPa | - | - | - | - |
| 1777686391 | 31.11° C | 89% | 1009.9 hPa | - | - | - | - |
| 1777685490 | 31.11° C | 90% | 1009.7 hPa | - | - | - | - |
| 1777684675 | 31.11° C | 89% | 1009.6 hPa | - | - | - | - |
| 1777684590 | 31.11° C | 89% | 1009.6 hPa | - | - | - | - |
| 1777683775 | 30.56° C | 90% | 1009.5 hPa | - | - | - | - |
| 1777683690 | 30.56° C | 90% | 1009.5 hPa | - | - | - | - |
| 1777682875 | 30.56° C | 90% | 1009.4 hPa | - | - | - | - |
| 1777682790 | 30.56° C | 90% | 1009.4 hPa | - | - | - | - |
| 1777681975 | 30.56° C | 87% | 1009.2 hPa | - | - | - | - |
| 1777681890 | 30.56° C | 87% | 1009.2 hPa | - | - | - | - |
| 1777680990 | 30.56° C | 85% | 1009 hPa | - | - | - | - |
| 1777680184 | 30° C | 85% | 1008.8 hPa | - | - | - | - |
| 1777680090 | 30° C | 85% | 1008.8 hPa | - | - | - | - |
| 1777679435 | 30.56° C | 84% | 1008.6 hPa | - | - | - | - |
| 1777679189 | 30.56° C | 84% | 1008.6 hPa | - | - | - | - |
| 1777678392 | 30.56° C | 84% | 1008.3 hPa | - | - | - | - |
* Rain since midnight (hover to see other rain measurements)
** Current wind speed in m/s (hover to see current wind gust speed)